Location: Bazinghen
(50.8246°N, 1.6616°E)
Time: 09:12:22
(UTC+00:00)

Cosmos 1766 Rocket - Pass Details

Date: 09 April 2020
Orbit: 604 x 634 km, 82.5° (Epoch: 24 May)

Event Time Altitude Azimuth Distance (km) Brightness Sun altitude
Rises 20:45:35 0° 354° (N) 2,942 7.7 -18.5°
Reaches altitude 10° 20:47:56 10° 1° (N) 2,027 6.7 -18.7°
Maximum altitude 20:52:14 42° 73° (ENE) 900 4.1 -19.2°
Enters shadow 20:52:54 39° 98° (E) 943 4.1 -19.3°
